Location: Newark
(49.9828°N, 3.1606°E)
Time: 20:51:55
(UTC+00:00)

Envisat - Pass Details

Date: 28 January 2020
Orbit: 764 x 766 km, 98.1° (Epoch: 22 February)

Event Time Altitude Azimuth Distance (km) Brightness Sun altitude
Rises 05:58:27 0° 19° (NNE) 3,245 6.3 -14.2°
Reaches altitude 10° 06:00:54 10° 27° (NNE) 2,314 5.7 -13.8°
Maximum altitude 06:05:41 40° 97° (E) 1,125 4.5 -13.1°
Drops below altitude 10° 06:10:26 10° 166° (SSE) 2,296 5.8 -12.3°
Sets 06:12:52 0° 174° (S) 3,218 6.5 -11.9°
